Wind_Speed
15 15 14 14 14 14 14 15 16 17 18 19 20 20 20 21 22 23 22 21 20 19 20 20 20 20 20 19 19 19 17 16 14 14 13 13 13 12 11 11 11 12 12 12 12 12 13 14 13 12 11 9 8 7 5 5 5 5 5 4 3 4 4 5 5 4 4 3 3 3 4 4 4 4 4 5 4 4 5 6 7 8 9 10 11
15 15 14 13 14 16 16 17 18 19 19 20 22 22 23 23 24 24 24 23 21 21 21 20 20 20 20 20 19 18 18 17 16 15 14 14 13 13 13 12 13 13 13 13 13 14 14 14 14 13 12 10 9 7 6 6 5 5 5 4 4 4 5 6 6 5 4 4 4 3 4 4 4 4 4 4 4 4 4 5 6 7 8 9 10
16 16 16 15 16 18 18 19 19 20 20 21 22 23 23 23 24 25 25 24 23 21 22 22 20 20 20 21 20 18 17 17 17 17 15 14 13 13 12 12 13 13 13 14 15 15 15 15 14 14 13 11 10 8 7 6 5 4 5 5 5 5 5 6 6 6 5 5 4 4 3 4 4 4 4 4 3 4 4 5 6 7 8 9 10
19 20 20 20 21 22 22 22 21 21 21 21 22 23 23 24 24 25 25 25 24 22 22 23 22 20 20 21 20 19 18 17 17 17 16 15 14 13 13 12 12 13 14 15 17 17 16 16 15 15 14 13 11 9 8 6 5 5 6 6 5 5 5 5 6 5 5 5 5 4 3 3 4 4 3 3 3 3 4 5 6 6 7 8 10
21 20 20 21 22 23 23 24 24 24 24 23 23 23 24 24 25 25 26 25 25 23 22 22 22 21 21 21 20 20 19 19 17 16 16 16 16 15 14 13 13 13 15 17 18 18 17 16 16 16 15 14 12 10 8 6 6 6 6 6 5 5 5 5 5 5 5 5 5 5 4 3 3 3 3 3 2 3 3 4 5 6 7 8 9
22 21 22 23 21 21 22 23 25 26 27 27 26 26 26 26 26 27 27 26 25 24 23 22 22 21 22 22 21 20 19 19 19 18 17 16 16 17 16 15 15 15 16 18 19 18 17 17 16 16 16 15 13 11 9 7 7 7 6 6 6 5 5 5 5 5 5 5 5 5 5 4 3 3 2 2 2 2 2 3 4 5 6 7 9
24 24 24 23 22 21 21 23 24 26 28 30 30 30 29 29 28 28 28 27 26 25 24 23 22 21 21 21 21 20 19 19 19 20 20 19 17 17 17 17 18 17 17 18 19 19 18 18 17 17 17 16 15 13 10 8 8 7 6 6 6 6 5 5 5 5 6 6 6 5 5 4 3 2 2 2 1 1 2 3 4 4 5 7 8
23 24 24 24 24 24 24 25 26 27 29 31 33 33 34 33 32 30 29 28 27 26 24 23 22 21 20 20 21 20 19 18 18 19 19 20 21 18 16 16 17 17 18 19 20 20 19 19 19 19 18 18 17 14 12 10 9 8 7 6 6 6 6 5 6 6 6 6 6 5 4 4 3 2 1 1 1 1 1 2 3 4 5 6 8
21 22 23 24 25 26 26 27 27 28 29 31 33 36 37 37 36 34 32 30 28 26 24 23 21 20 19 19 20 20 20 19 18 18 18 19 21 21 19 16 16 17 18 19 20 20 21 20 20 20 19 19 18 15 13 11 9 8 7 6 6 6 6 6 6 6 6 6 6 5 3 3 3 2 1 1 1 0 1 2 3 4 5 6 7
17 19 20 21 22 24 25 26 28 29 29 29 31 34 35 36 36 36 35 32 29 27 25 23 21 19 19 18 18 20 20 19 18 18 17 17 19 21 21 18 17 17 18 19 20 21 21 21 20 20 20 19 18 16 14 12 10 9 7 6 7 7 6 6 6 6 6 5 5 4 3 3 2 2 2 1 1 1 1 1 2 3 4 6 7
17 20 21 22 22 22 22 24 26 28 29 29 29 30 31 32 32 34 35 34 31 28 26 24 22 20 19 19 18 18 19 20 19 18 17 18 18 19 20 20 19 19 19 20 20 21 21 21 21 20 20 20 19 18 15 14 12 9 7 7 8 7 6 7 6 6 5 5 4 3 3 3 2 2 2 2 2 1 1 1 2 3 4 5 7
19 21 22 23 23 23 23 23 25 27 27 28 29 30 31 34 34 33 33 33 33 30 28 26 24 22 21 19 18 18 18 19 20 19 18 17 18 19 20 20 20 20 20 20 21 21 21 21 21 21 20 20 19 19 17 15 13 11 9 8 9 7 7 7 7 5 5 5 4 4 4 3 2 2 3 2 2 2 1 1 2 2 4 5 6
20 21 23 24 24 26 27 26 28 27 25 26 27 29 31 35 35 31 28 27 30 31 29 27 25 23 22 20 19 18 18 18 20 20 19 17 17 19 20 21 21 20 20 20 21 22 22 22 21 20 20 20 21 20 19 17 15 12 10 9 9 8 7 7 6 6 6 5 5 5 4 2 2 3 3 3 2 2 2 1 1 2 3 5 6
24 24 25 26 26 28 28 28 30 29 27 26 26 29 31 32 33 30 28 26 28 31 31 28 25 23 22 22 20 19 19 18 19 20 20 19 18 19 20 22 23 22 20 19 20 21 22 21 20 19 20 20 22 22 20 18 16 14 12 11 10 10 9 7 6 6 5 5 6 6 4 3 3 4 3 3 2 2 2 2 1 2 3 4 5
26 27 27 27 26 27 28 28 30 29 28 28 29 29 29 31 33 32 30 29 26 28 33 31 26 24 23 22 22 21 20 19 19 20 20 21 20 20 21 23 25 25 22 20 19 20 21 21 21 21 21 22 23 23 22 20 18 16 13 12 11 11 10 8 6 6 5 5 6 5 4 5 5 4 4 3 2 2 2 2 2 2 3 4 5
28 28 28 27 26 27 28 28 29 28 27 28 30 31 32 33 34 34 32 29 26 25 31 33 29 26 25 24 23 22 22 22 21 20 21 21 22 22 22 23 25 26 25 23 22 22 22 23 23 23 23 23 23 24 23 21 19 17 15 14 13 13 12 9 7 7 6 6 5 5 5 6 6 5 4 3 2 3 3 3 2 2 2 3 4
29 29 28 27 27 29 29 28 29 28 27 27 27 29 33 36 36 37 34 29 26 23 25 30 30 27 26 26 24 24 24 24 23 22 22 22 23 23 23 24 24 25 27 27 25 25 25 25 25 24 24 23 24 25 24 22 21 19 18 16 15 15 14 10 8 8 7 6 5 6 7 7 7 6 5 3 3 3 3 3 2 2 2 3 3
30 29 28 27 28 29 28 27 28 27 28 29 28 28 31 34 34 34 34 29 27 25 23 25 28 28 27 27 26 26 26 25 25 24 24 23 24 24 24 24 24 24 26 27 27 27 27 26 25 24 24 24 25 26 25 23 22 21 20 18 17 17 16 13 11 10 9 7 7 7 8 8 7 7 5 4 3 3 3 3 3 2 2 3 3
28 28 28 27 27 28 27 26 26 25 26 29 29 29 29 31 28 25 28 30 30 29 27 25 25 27 26 26 26 26 26 26 26 26 25 25 25 25 26 25 24 24 24 26 27 27 27 27 26 25 24 24 25 26 25 24 23 22 21 21 20 19 17 15 13 12 10 9 9 8 8 7 7 7 6 5 5 4 4 4 4 3 3 3 3
26 26 26 26 26 26 26 25 25 25 25 26 27 28 27 29 30 28 28 28 30 29 28 27 26 25 24 24 24 25 25 26 27 27 27 27 27 27 27 26 26 25 24 25 26 27 27 27 26 25 25 25 25 25 26 25 24 24 23 23 22 20 18 17 15 14 12 11 10 9 8 8 8 8 7 6 6 5 5 5 4 4 3 3 3
24 24 24 24 24 24 24 24 24 24 24 24 23 23 24 26 32 35 32 29 31 30 29 29 29 27 25 24 23 23 23 25 26 28 29 28 28 28 27 27 27 26 25 26 26 27 27 27 27 26 26 25 25 25 26 26 25 25 25 25 24 22 20 20 18 15 14 13 11 10 9 9 8 8 8 7 7 6 6 5 5 4 4 3 3
22 22 22 22 22 23 22 21 22 22 23 23 21 20 21 23 27 30 31 30 31 32 31 28 29 28 26 24 22 21 21 22 24 27 29 29 28 28 27 27 27 27 27 27 27 28 28 28 28 28 27 26 26 26 26 26 26 26 26 26 25 23 21 23 21 16 16 15 12 11 10 10 10 9 9 8 7 7 7 6 6 5 4 4 4
21 21 21 21 21 21 21 20 20 21 21 21 21 20 18 19 22 24 26 28 29 31 31 27 26 27 26 23 20 20 20 20 22 25 27 28 28 28 27 26 27 27 27 27 28 28 29 29 30 30 29 28 27 27 27 27 27 27 27 27 26 25 23 24 23 19 18 16 14 13 12 11 11 10 9 9 8 7 7 7 7 6 5 5 4
21 21 21 21 21 21 21 20 20 20 20 20 21 20 18 17 19 22 24 26 28 32 34 30 28 27 27 25 23 22 21 21 22 23 25 26 28 28 28 26 26 27 27 28 28 29 30 30 31 32 31 29 29 28 27 27 28 28 28 28 27 26 25 26 25 21 20 18 16 14 13 12 12 11 10 9 9 8 8 8 8 7 6 6 6
21 22 22 22 21 21 21 21 20 20 20 19 20 21 21 20 20 21 22 24 25 31 36 32 31 29 28 27 26 25 23 23 23 24 25 25 26 27 29 28 27 27 28 28 29 29 30 31 32 33 32 31 30 28 28 28 28 28 29 29 28 27 26 27 26 23 22 20 18 16 15 14 13 12 11 11 10 9 9 9 9 8 7 7 7
20 21 22 21 21 20 20 20 20 20 20 20 20 20 20 21 21 20 21 22 20 30 35 31 30 29 28 27 26 26 25 25 25 26 26 26 26 27 28 30 29 28 29 29 29 30 30 31 32 33 33 32 31 29 28 29 29 29 29 29 28 27 27 28 28 25 23 22 20 18 16 15 14 13 12 12 11 11 10 10 10 9 9 8 8
19 20 21 20 19 19 19 20 20 20 20 20 21 20 19 19 20 18 19 19 17 28 33 28 27 27 27 27 27 28 27 27 27 27 27 27 28 28 29 31 31 30 30 31 30 31 31 31 32 33 33 33 31 29 29 30 29 29 29 29 28 27 27 28 28 27 25 24 22 20 18 17 15 15 14 13 12 12 11 11 11 10 10 10 9
19 20 20 19 19 19 20 21 21 21 21 20 20 19 19 19 19 18 17 16 17 25 27 24 25 26 27 28 28 28 28 28 28 28 28 28 28 28 29 31 32 32 31 32 32 31 32 32 33 34 34 33 31 30 31 31 29 28 28 29 28 27 28 28 29 28 26 25 24 22 20 18 17 16 15 14 13 13 12 12 12 11 11 11 11
21 20 20 19 19 20 22 22 22 21 21 20 20 19 19 19 20 19 18 18 19 21 22 22 23 24 26 26 25 26 27 28 28 28 29 29 28 28 30 30 32 33 33 33 32 33 33 34 34 34 34 33 31 30 31 31 29 28 29 29 28 28 28 28 29 29 27 26 26 24 22 20 18 17 16 15 14 14 14 13 13 12 12 12 12
22 21 20 20 21 22 23 23 23 22 21 20 19 19 18 19 20 20 20 21 23 24 23 22 21 22 24 24 25 26 27 28 28 28 29 30 29 29 30 30 31 33 35 34 33 33 35 36 36 35 34 33 31 31 32 31 29 29 29 29 28 28 28 28 29 29 28 27 26 25 24 21 19 18 16 16 15 15 15 14 14 13 13 13 13
23 22 21 22 23 24 25 25 25 23 21 19 18 18 17 18 19 18 19 20 24 28 29 27 24 23 23 24 26 27 28 28 29 29 29 30 31 30 31 32 33 33 35 35 34 34 36 37 37 36 35 34 32 32 32 31 30 30 30 29 28 28 27 28 29 29 28 27 27 26 25 23 21 20 18 17 16 16 16 15 15 14 14 14 13
24 23 23 24 25 26 27 27 27 24 21 20 17 16 16 18 19 17 17 15 17 25 31 32 31 28 25 24 25 25 26 27 29 29 29 30 31 32 31 33 35 34 35 37 36 34 35 38 39 38 36 34 34 33 33 32 31 30 30 29 28 27 27 27 29 28 28 27 26 26 25 24 23 21 20 18 17 17 17 16 16 15 15 15 14
25 24 24 25 26 27 29 29 27 23 20 19 17 16 15 17 19 20 19 16 16 24 28 30 31 30 29 28 26 24 23 24 26 27 26 28 30 32 32 33 35 36 35 38 38 35 34 36 39 39 37 35 35 34 33 33 32 31 30 29 28 27 27 27 27 27 27 27 26 25 25 24 24 23 22 20 18 17 17 17 17 16 15 15 15
25 25 26 27 27 28 30 30 27 22 17 16 15 15 15 15 17 20 22 21 23 26 27 27 28 27 27 29 29 26 22 21 23 24 24 26 30 31 31 31 32 34 35 37 37 34 32 34 37 39 38 37 35 34 34 33 32 31 30 29 28 28 27 27 26 25 25 26 24 24 25 25 24 24 23 22 20 19 18 18 18 17 16 16 16
24 25 26 27 28 29 31 30 25 19 16 15 14 12 12 13 13 15 18 23 26 29 28 28 27 27 27 27 29 28 24 20 20 22 23 26 31 32 33 31 30 31 33 34 34 33 32 32 33 36 38 37 36 35 35 34 33 32 31 30 29 28 28 27 26 25 25 25 23 23 24 24 24 24 24 24 23 21 20 19 19 18 18 17 17
23 24 25 27 28 29 30 28 20 14 16 16 13 11 10 11 11 10 11 15 19 23 25 26 26 28 29 27 28 29 27 24 20 19 20 24 31 34 35 36 35 35 35 34 32 33 35 34 33 34 35 36 37 38 37 36 35 33 32 30 29 29 28 28 27 27 26 25 24 24 24 24 23 23 24 25 25 24 22 21 20 20 19 18 18
22 23 24 25 26 27 28 26 17 11 14 16 12 10 10 10 10 9 8 9 11 14 16 20 23 25 28 28 28 29 30 29 25 22 20 21 27 34 36 38 39 40 41 39 33 32 35 36 36 36 36 37 39 40 39 37 35 34 32 31 30 30 29 29 28 27 27 26 26 27 26 25 24 23 23 24 26 26 25 23 22 21 20 20 19
20 21 22 23 23 25 26 24 16 10 12 14 11 9 10 10 9 9 9 10 10 12 13 16 18 20 23 26 28 30 30 30 30 29 25 22 23 29 36 39 41 40 41 40 35 32 35 37 36 37 37 38 39 40 38 37 36 35 34 33 32 32 31 30 29 28 27 27 28 28 28 27 26 25 24 25 26 27 27 26 24 23 22 21 20
19 20 21 20 20 22 24 22 15 10 10 12 11 9 10 10 10 9 10 11 12 13 14 15 16 17 19 21 24 27 29 30 32 32 30 27 24 25 31 38 41 42 42 43 41 37 37 38 37 37 39 40 41 42 40 39 39 38 36 35 34 34 33 32 31 30 29 29 29 29 29 28 28 28 27 27 27 27 27 27 27 26 24 23 22
19 20 20 19 18 19 22 21 16 11 10 11 10 9 10 10 10 10 10 11 12 13 14 15 17 17 17 18 21 23 26 28 30 32 32 30 27 24 27 33 38 42 44 45 45 41 41 41 40 40 41 41 41 43 43 41 40 38 37 36 36 36 35 34 32 31 30 30 31 31 30 30 30 29 29 29 28 28 28 28 28 28 27 25 24
18 19 20 19 16 17 19 19 16 12 10 11 10 9 10 10 11 11 11 12 13 14 15 16 18 19 18 17 18 20 22 24 26 26 27 30 30 26 25 28 33 37 38 38 39 40 42 45 44 42 42 42 39 38 40 39 38 38 37 37 38 37 36 35 34 33 32 32 32 31 31 31 31 31 31 30 29 29 29 29 28 29 29 28 26
17 18 18 18 16 15 16 17 15 12 11 12 13 11 11 12 13 13 13 14 15 15 16 17 19 20 20 18 17 17 18 21 23 23 22 26 29 26 24 27 32 35 36 35 37 39 41 44 46 44 43 43 40 38 38 38 38 38 38 39 39 38 38 38 36 35 34 34 33 32 31 32 31 31 31 30 30 30 31 30 29 29 30 30 29
16 16 17 17 16 14 13 14 13 12 11 12 14 14 14 13 13 14 15 16 16 17 17 18 18 20 21 20 18 16 15 17 21 25 27 28 29 28 27 29 33 36 38 40 41 40 39 41 45 45 45 45 44 43 42 43 42 41 41 41 40 39 40 40 38 37 37 37 35 33 32 32 31 31 32 31 30 31 32 32 31 30 30 31 31
16 16 16 16 16 14 12 11 11 11 10 10 12 14 15 14 13 14 15 16 17 17 18 18 19 19 20 21 20 18 15 14 17 22 27 28 30 31 32 32 33 34 36 38 42 40 37 40 44 45 46 46 46 46 46 47 46 44 44 44 42 42 42 41 41 41 40 38 36 35 34 33 32 32 32 31 30 31 32 33 32 31 31 31 32
15 15 15 16 16 15 12 10 9 9 9 8 9 10 13 14 14 14 14 15 16 17 18 19 19 20 20 19 20 19 17 15 15 19 22 25 27 30 32 34 34 35 34 34 36 36 35 39 43 45 46 46 46 47 47 48 47 46 46 44 42 42 42 42 43 43 41 39 38 38 38 36 34 33 33 32 32 31 31 32 32 32 32 33 33
16 15 15 16 16 15 13 11 9 9 8 7 7 8 9 11 12 13 14 14 15 16 17 18 19 19 19 19 18 19 19 18 16 17 19 21 23 26 29 32 34 35 35 33 33 34 35 37 41 43 45 45 45 45 47 49 48 46 45 44 41 41 42 42 43 42 40 40 40 40 40 39 38 36 34 34 34 33 31 31 31 32 33 33 33
16 16 15 16 16 16 15 13 11 10 10 9 8 7 8 9 10 10 11 12 13 14 15 17 18 18 18 18 18 18 19 19 19 18 17 17 18 20 23 26 30 32 33 34 34 35 36 37 38 40 41 42 42 43 44 47 47 46 46 45 42 40 41 41 42 40 39 38 38 38 38 38 39 38 35 34 34 34 33 32 31 32 33 34 34
17 17 16 16 15 15 15 14 13 12 12 12 10 9 9 9 10 10 11 10 10 11 13 14 16 18 18 18 18 18 18 19 20 19 19 18 17 17 17 19 23 27 30 32 33 35 37 39 39 39 40 40 41 41 42 44 45 45 46 46 44 42 41 41 41 40 38 38 38 38 37 37 38 38 36 34 34 35 35 34 33 32 33 33 34
18 18 16 15 15 15 15 15 14 14 15 15 14 13 12 11 11 12 12 12 11 11 11 12 14 16 18 18 18 18 18 19 20 21 20 20 20 19 18 17 18 21 25 29 31 33 34 36 37 39 40 40 41 41 42 43 44 44 45 45 44 43 42 41 40 40 39 38 38 39 39 39 39 39 38 37 35 34 34 34 34 33 32 33 34
18 17 16 15 15 15 15 15 15 15 16 17 18 17 16 15 13 13 13 13 13 13 13 13 13 15 17 18 19 19 19 19 20 22 22 22 22 22 21 21 20 19 21 24 28 31 33 35 35 36 37 38 40 40 40 41 42 43 43 43 42 43 43 42 41 40 39 37 38 39 41 42 41 40 40 40 38 35 34 34 34 34 33 34 34
16 16 17 16 15 15 15 14 14 15 16 18 19 20 19 19 17 16 15 15 15 15 15 15 15 15 16 17 19 20 21 21 21 22 23 24 24 25 25 24 24 23 22 22 23 26 30 33 36 37 38 38 39 40 40 40 41 42 42 42 42 42 42 42 42 41 40 38 37 38 41 43 43 40 40 41 40 37 35 34 33 34 35 35 35
Wind_Direction
275 275 276 277 277 272 267 264 263 262 262 261 260 257 255 256 259 262 261 260 259 258 258 255 253 253 253 251 251 250 248 249 248 243 235 229 226 225 225 226 226 229 233 238 245 247 244 237 229 222 222 227 235 244 252 266 277 282 282 270 240 213 205 204 203 199 182 163 158 156 150 145 135 120 102 89 76 60 46 34 26 19 9 3 1
275 272 268 268 269 269 266 262 259 258 257 257 258 257 256 256 257 260 261 260 259 257 256 255 251 248 249 250 249 249 247 247 247 244 238 230 224 219 218 220 224 228 232 236 244 248 245 239 230 222 221 225 231 239 247 258 271 284 285 271 243 218 208 202 197 191 177 163 167 169 163 154 138 122 106 93 76 58 43 32 24 18 8 3 359
273 272 269 268 270 269 266 261 257 255 254 254 255 255 255 254 255 257 259 260 260 257 255 254 252 247 245 247 247 246 245 245 245 243 240 233 225 218 216 219 223 229 233 237 243 244 243 238 230 223 221 223 227 235 244 256 271 281 277 268 250 228 213 202 193 185 177 170 169 170 169 162 143 128 113 97 78 57 41 29 22 15 8 2 357
273 274 274 273 272 270 266 261 257 255 253 252 252 253 253 252 252 254 257 258 258 257 254 253 251 248 245 244 244 243 242 243 243 242 240 237 230 221 218 220 223 231 235 237 239 240 240 237 231 224 222 223 226 233 241 250 265 273 271 272 263 245 226 209 196 185 180 177 171 169 174 173 153 136 122 104 83 57 38 27 21 13 7 1 356
278 277 276 275 273 269 266 264 261 258 254 252 251 252 251 250 249 251 253 255 255 254 253 251 249 247 245 244 243 242 241 242 243 244 243 239 234 226 220 220 224 231 236 237 237 238 238 236 232 227 225 224 227 231 236 243 257 268 273 278 274 257 236 217 200 187 182 183 179 173 176 177 161 144 129 110 86 58 37 24 20 11 5 360 355
281 277 275 274 272 268 265 264 264 263 260 255 252 252 251 249 248 248 249 251 251 251 250 249 247 245 243 243 243 241 240 241 243 245 246 242 237 230 224 222 223 230 236 238 238 238 238 237 233 230 228 226 228 231 230 235 251 264 272 279 277 263 243 226 208 194 188 188 186 181 178 175 162 149 137 116 93 63 33 22 16 10 3 357 355
278 276 275 273 271 269 264 261 261 262 263 261 257 253 252 251 248 246 245 246 246 246 244 244 243 241 240 240 241 242 240 239 242 245 247 246 242 235 227 224 223 227 233 237 239 238 237 237 235 231 229 229 228 228 226 229 242 255 265 276 279 272 254 238 222 204 194 194 193 189 180 173 161 150 142 130 112 72 28 17 13 8 2 357 357
281 282 281 278 277 275 271 268 266 264 264 264 263 258 253 250 247 245 243 242 242 241 239 238 238 237 237 237 237 239 240 238 240 243 246 247 246 240 232 226 224 227 232 236 239 239 237 236 235 232 230 230 228 226 225 227 235 246 257 270 281 277 262 248 234 217 204 199 198 194 183 177 162 150 161 153 137 85 21 10 9 5 1 357 359
288 290 287 284 283 281 279 277 277 274 271 270 270 267 258 249 245 242 241 240 240 238 236 234 233 233 234 235 235 235 237 237 238 240 244 247 246 242 236 232 229 229 232 236 239 239 238 237 236 235 231 229 228 225 223 225 231 241 250 265 277 275 266 253 238 228 217 208 202 193 186 189 168 158 191 181 177 164 358 1 5 2 358 356 359
284 286 286 286 286 287 286 284 283 280 279 277 277 276 265 253 247 242 238 236 237 237 235 233 231 231 232 233 234 233 233 234 236 237 240 244 246 243 238 237 236 233 233 235 238 239 239 239 238 237 234 231 228 225 222 223 229 236 243 254 268 273 269 256 239 228 225 219 211 197 197 205 180 177 210 205 206 213 321 348 356 357 355 355 1
282 286 288 290 292 293 292 289 286 282 281 280 281 282 271 262 257 250 241 234 232 234 234 232 231 230 230 230 232 232 231 231 232 234 236 240 243 244 241 240 239 235 233 234 236 237 238 239 239 238 236 232 231 227 222 221 225 231 235 244 257 269 269 258 245 232 225 224 220 206 211 213 188 211 227 217 218 218 268 318 345 354 353 355 2
293 294 293 293 297 297 294 292 288 286 285 284 286 285 277 271 266 257 246 237 230 229 231 231 230 230 231 231 231 233 232 231 230 231 232 235 240 243 242 242 241 237 234 235 236 236 236 236 236 237 237 235 234 230 224 221 222 224 227 236 250 262 263 258 253 238 223 219 220 212 212 210 197 236 241 232 230 228 253 292 330 352 353 356 3
298 295 291 292 295 294 291 290 288 289 290 290 289 287 283 273 264 257 251 244 235 229 228 228 228 230 232 232 232 234 234 233 231 230 230 231 237 241 242 242 241 239 236 236 237 236 236 235 233 234 238 239 239 233 226 222 219 219 222 230 244 252 253 255 254 241 228 217 218 216 206 200 216 240 246 242 238 238 254 277 319 349 350 353 3
295 292 290 290 293 291 289 289 289 291 291 291 290 288 286 274 261 257 256 253 245 236 231 228 228 229 232 234 233 235 235 236 234 232 231 230 232 237 240 242 241 239 237 238 238 238 236 233 231 234 238 242 242 236 228 223 218 217 220 227 237 244 249 250 247 242 235 220 217 219 202 198 214 227 236 239 243 245 256 267 301 337 345 350 3
291 290 291 292 293 290 289 290 289 291 292 291 289 287 285 275 264 262 261 254 246 239 234 230 230 231 232 234 234 235 236 236 236 235 233 232 230 233 236 239 240 239 238 237 236 237 236 234 236 238 239 240 242 239 231 225 219 217 217 224 231 238 246 245 242 242 234 220 220 219 202 205 211 212 221 226 242 249 258 268 288 321 337 344 359
292 292 293 293 291 289 289 289 287 288 290 291 290 286 282 276 268 264 264 256 250 246 235 230 231 233 234 235 236 235 237 236 236 236 236 235 232 232 234 237 239 238 238 237 235 235 237 240 242 242 240 239 241 240 234 227 221 217 216 221 226 231 240 239 238 240 233 223 223 221 206 212 212 204 208 207 228 248 259 268 279 304 321 333 352
295 294 294 293 290 288 289 287 286 285 285 288 292 290 282 278 272 263 260 256 253 252 242 234 232 235 238 237 237 235 236 236 235 236 236 236 234 233 234 237 239 237 237 239 239 238 239 241 242 242 242 242 242 240 235 229 223 219 217 220 222 226 233 232 230 235 237 227 219 222 217 217 217 208 204 203 215 237 252 263 271 284 302 320 340
297 296 295 294 291 289 289 286 284 284 281 282 287 291 284 278 274 259 253 253 250 250 250 247 237 236 239 237 237 235 235 234 233 234 235 236 235 235 234 236 238 238 238 239 240 241 241 240 239 239 240 241 242 240 236 231 226 221 219 220 220 224 230 228 225 230 232 226 217 220 225 223 222 218 212 210 214 229 246 254 260 265 280 304 326
296 295 296 294 292 290 290 287 285 284 281 280 280 287 284 274 269 258 258 257 252 252 251 250 240 235 236 234 234 233 234 234 232 232 233 234 235 235 235 234 235 236 238 238 240 241 242 240 238 237 237 238 239 238 236 233 228 224 221 220 220 222 228 229 223 225 225 224 222 218 228 231 229 230 225 224 226 231 242 245 247 251 260 285 312
296 295 297 296 295 294 293 291 290 287 283 282 279 283 284 267 257 259 270 266 256 255 248 242 236 231 232 232 232 231 233 234 234 233 231 232 233 234 234 234 234 233 235 237 238 240 242 241 239 237 235 236 237 237 236 234 230 226 223 221 221 221 226 230 226 225 225 223 224 218 223 232 233 236 235 233 234 236 242 244 242 242 246 263 292
299 299 301 301 301 299 299 298 296 292 285 282 281 286 285 267 255 257 267 266 259 255 246 240 235 231 233 234 233 232 233 234 235 234 232 231 231 233 233 234 234 232 232 233 236 238 240 240 239 238 236 235 236 237 238 236 233 230 227 223 222 221 222 230 229 225 226 224 223 220 219 226 232 237 239 236 236 237 242 243 241 238 239 248 270
305 304 303 303 303 302 303 304 299 294 288 284 284 289 287 272 260 260 263 261 258 251 241 236 234 232 234 235 234 233 234 235 236 235 235 235 233 234 234 234 233 232 231 232 233 235 238 239 239 238 236 236 235 236 238 238 236 233 231 226 223 222 220 230 232 223 227 227 222 224 222 223 228 233 238 238 236 236 240 244 241 235 232 240 253
310 308 306 305 305 305 305 304 299 294 292 288 285 287 289 278 265 266 266 260 257 243 231 230 231 229 230 233 232 232 235 237 240 239 239 239 237 236 235 236 235 233 231 230 232 233 235 237 238 238 236 236 236 236 238 239 238 236 233 230 225 223 221 229 232 224 226 229 223 225 225 224 226 228 234 236 236 236 237 242 243 237 228 231 243
313 311 310 310 309 308 305 302 298 294 294 291 285 280 280 283 273 270 265 262 261 238 226 229 229 226 226 229 230 230 232 236 241 242 242 241 239 239 237 235 236 238 237 233 232 232 234 235 236 236 235 234 235 236 237 238 238 236 234 231 228 225 222 227 232 226 226 228 224 226 226 226 228 226 229 231 234 236 237 240 243 240 231 228 236
315 314 313 313 312 311 307 305 302 297 295 290 286 277 272 275 275 274 265 266 263 232 224 230 231 231 229 229 231 229 229 231 236 239 242 244 243 245 245 239 235 237 240 239 237 235 235 235 236 236 234 233 234 235 236 237 237 237 235 232 230 227 224 228 232 228 227 229 226 226 226 227 229 228 227 228 230 233 236 239 241 241 235 230 232
316 315 315 316 317 315 312 308 304 299 294 287 283 277 272 268 267 272 266 266 254 223 223 230 231 234 233 234 236 234 232 229 231 235 237 242 245 248 250 247 241 236 237 239 240 239 238 237 237 236 234 234 235 235 235 237 238 237 236 234 232 230 227 229 232 230 228 230 229 227 226 227 229 230 229 228 230 231 234 237 240 240 236 232 232
320 319 319 319 319 317 314 309 304 299 293 286 281 275 272 264 258 262 259 258 243 221 223 228 229 231 233 236 238 237 236 233 232 234 236 239 243 246 248 248 244 239 235 235 237 239 239 239 239 237 235 236 237 236 236 236 238 238 238 237 234 231 229 230 234 233 230 230 231 228 227 227 229 231 231 231 231 232 234 236 238 239 237 233 233
327 325 323 321 319 317 314 310 305 299 292 285 279 272 267 258 249 250 248 243 232 221 221 225 226 228 230 234 238 238 238 238 237 237 237 239 240 244 248 248 243 239 234 231 233 235 238 239 240 239 237 238 240 239 237 236 237 239 239 238 235 233 232 231 234 234 231 231 232 230 230 229 229 232 233 233 233 234 235 236 237 238 237 233 232
331 329 327 325 323 321 318 316 311 302 293 283 275 267 258 250 241 237 236 229 221 219 219 221 222 225 229 232 237 239 239 240 240 239 240 240 240 242 246 247 242 239 235 233 231 231 233 235 237 239 239 242 244 243 240 238 237 238 238 237 235 235 233 233 235 236 234 232 233 232 232 233 232 233 235 236 236 237 238 238 238 238 237 234 232
330 330 331 331 328 327 325 324 319 308 293 279 269 262 253 246 240 233 231 227 220 217 216 217 217 221 226 231 235 239 240 241 241 241 241 240 239 239 243 245 244 242 239 237 233 230 230 230 232 234 237 241 244 244 242 240 238 238 237 237 235 235 234 234 236 238 236 235 235 234 234 234 235 235 236 238 239 240 241 242 241 240 239 237 234
328 331 334 335 333 332 332 331 326 314 295 277 262 256 249 241 237 231 229 229 227 224 222 220 218 220 224 230 236 241 243 243 244 243 241 241 238 236 240 243 244 243 241 240 235 232 230 229 231 232 234 237 238 239 241 240 239 238 237 236 235 234 235 235 237 238 238 237 236 236 237 236 236 236 237 239 240 242 244 245 245 243 241 240 237
328 331 335 337 336 336 337 335 330 318 297 278 260 250 246 238 230 223 217 218 229 233 230 227 225 226 228 232 238 243 247 245 244 242 240 240 239 236 238 242 243 241 241 242 239 235 232 229 230 233 235 236 236 235 235 235 235 235 235 236 235 234 235 236 237 238 239 238 237 238 239 238 238 238 239 240 241 243 246 248 248 246 244 242 240
328 331 335 338 337 338 340 338 333 321 298 280 265 248 243 239 231 225 217 210 227 235 232 230 228 228 230 234 239 244 249 246 242 241 240 240 240 238 238 241 242 240 241 244 242 239 235 230 230 232 233 235 236 235 233 232 231 232 232 233 234 234 235 236 237 239 239 238 236 237 239 239 238 239 240 241 242 244 247 249 251 251 249 246 243
327 330 334 337 338 340 343 340 336 325 303 288 276 257 247 247 239 232 225 220 228 231 227 228 228 227 230 234 237 240 244 244 240 237 238 241 241 239 239 241 240 239 242 244 243 241 237 233 230 229 230 232 234 233 232 232 232 233 234 233 233 233 235 237 238 240 242 240 236 237 239 239 238 238 239 241 242 243 246 248 250 251 251 250 247
325 329 333 336 338 342 344 342 339 331 318 308 295 275 260 259 253 240 229 226 229 229 229 231 231 231 232 234 236 236 237 241 241 235 234 240 241 238 236 237 236 237 242 244 244 241 235 232 229 227 226 227 229 230 230 232 233 234 235 236 236 236 236 236 235 237 241 242 241 241 243 243 242 240 240 241 242 242 243 246 249 250 250 250 249
324 328 334 336 339 343 346 344 341 337 332 326 310 291 280 272 267 259 241 232 232 232 233 235 236 235 233 234 237 236 234 237 240 238 236 236 240 239 236 235 236 238 242 245 246 243 237 233 230 226 223 223 226 228 229 232 233 232 234 235 237 238 239 238 236 236 239 241 243 243 244 246 245 243 242 242 243 243 243 244 247 249 249 249 248
325 327 333 336 338 343 347 347 344 337 336 333 313 286 280 277 272 271 264 250 242 238 234 235 237 237 234 234 235 236 236 235 237 241 243 238 238 240 240 240 240 240 241 243 245 244 239 236 232 226 223 223 226 228 227 228 230 230 231 233 234 236 238 239 239 238 240 243 244 244 243 243 244 245 245 245 246 245 244 244 245 247 248 249 249
325 325 330 334 336 341 347 350 346 332 332 333 315 279 267 264 260 262 266 262 251 244 238 239 241 240 238 237 235 236 237 236 237 241 244 245 243 240 240 242 243 240 236 236 240 243 240 236 232 227 225 225 229 231 230 229 232 232 231 231 232 233 235 237 238 238 239 242 245 247 246 243 242 242 242 244 246 246 245 243 244 246 247 248 249
325 323 326 332 335 340 346 351 348 332 327 331 321 290 271 266 261 259 265 263 254 245 240 241 246 247 245 243 238 236 236 236 237 241 243 247 251 246 238 238 242 240 235 235 240 244 240 235 232 229 228 228 231 232 233 234 235 234 232 231 231 233 234 236 237 238 237 238 242 245 247 246 243 241 239 239 242 245 246 244 243 244 246 248 249
325 321 322 330 334 338 344 351 350 336 323 324 323 302 281 275 272 269 266 261 254 249 243 238 241 244 244 243 241 237 236 236 237 240 243 246 252 251 240 236 240 241 238 238 241 243 240 234 231 230 230 232 233 233 233 232 233 234 233 233 234 236 236 237 239 239 239 238 239 240 243 245 245 244 242 239 239 242 244 244 243 242 244 246 248
324 320 320 327 332 336 342 349 350 337 319 312 311 303 289 283 280 276 269 261 256 251 244 238 236 237 236 236 238 237 236 236 236 238 245 250 251 249 239 236 240 240 236 236 239 243 243 238 233 232 232 234 237 237 233 231 232 233 234 236 238 240 241 242 241 241 241 240 240 239 240 242 244 245 245 243 241 241 243 243 243 243 242 244 246
322 319 318 322 327 331 338 347 349 336 316 304 300 297 290 285 283 279 273 267 260 252 245 240 236 235 234 233 232 233 235 234 230 227 233 246 250 244 237 240 244 243 240 239 242 246 247 241 237 234 233 236 241 242 239 236 236 237 238 239 240 243 245 245 244 243 243 243 242 241 240 241 242 244 246 246 245 244 244 243 243 243 243 243 244
321 319 317 317 319 323 331 342 348 339 317 302 297 294 292 287 282 278 275 271 263 254 247 243 238 235 234 234 233 229 230 229 225 221 221 229 236 234 232 239 244 243 243 244 245 247 246 240 236 235 235 237 240 242 242 241 242 243 243 243 243 244 245 246 245 244 243 243 243 243 242 241 241 243 245 246 247 247 246 244 242 242 242 242 243
318 317 315 311 310 313 320 331 341 342 326 307 296 292 291 291 286 278 272 269 264 257 251 246 241 237 233 234 236 232 226 221 218 221 224 227 228 225 224 230 237 240 241 243 243 242 242 237 233 234 236 237 238 240 241 242 244 246 247 247 246 244 244 245 245 245 244 244 244 244 243 242 242 242 243 244 245 247 248 248 245 242 242 241 241
315 315 314 308 303 304 308 316 325 334 334 321 306 294 289 289 289 285 278 271 265 260 255 251 245 241 236 232 234 235 232 224 215 215 221 227 229 228 226 227 233 238 239 239 238 234 235 236 234 234 236 237 238 239 241 243 245 247 248 247 246 244 243 244 245 245 245 245 245 245 245 244 243 243 242 243 242 243 246 249 250 247 244 242 240
312 313 313 308 301 297 299 303 307 313 319 321 315 306 297 293 293 291 288 282 276 268 261 257 252 246 241 236 232 233 234 232 225 218 218 219 223 227 230 230 234 237 236 235 233 231 232 235 235 235 237 238 239 239 241 244 246 246 245 244 244 244 242 242 244 245 245 245 245 246 246 246 245 245 243 242 242 241 241 245 249 250 249 245 242
311 310 311 309 302 295 293 295 295 297 300 302 303 301 299 297 294 292 290 287 284 280 274 267 261 254 249 244 237 232 233 233 231 228 225 222 219 221 227 231 234 237 237 233 229 228 229 231 232 232 234 236 237 238 240 243 245 244 242 241 242 243 242 242 243 245 245 245 244 244 245 246 245 245 243 242 241 240 239 239 241 246 249 250 246
309 308 307 306 302 296 291 289 288 289 290 291 290 288 286 285 285 286 286 285 282 281 281 277 272 265 259 253 246 239 235 233 232 230 230 229 226 222 222 226 230 234 237 237 234 231 229 228 229 230 232 234 235 236 238 241 242 242 241 242 243 243 241 241 241 242 243 244 244 243 242 242 243 244 245 245 243 240 239 238 237 238 243 248 250
305 305 304 301 301 298 292 287 284 284 285 286 286 285 283 281 281 280 281 281 277 274 272 273 274 272 268 263 257 251 244 238 234 232 231 231 230 227 225 224 227 229 231 234 236 237 236 234 233 233 234 236 237 237 238 240 241 242 242 243 242 240 239 239 239 240 242 243 243 244 243 242 242 244 246 246 244 242 242 240 238 237 238 241 246
302 301 301 298 296 297 296 290 284 281 280 282 284 285 284 282 280 278 277 276 275 272 268 265 265 267 269 269 266 263 258 251 242 236 232 231 231 230 229 228 228 228 228 229 230 233 236 238 238 239 239 240 240 241 240 240 241 242 242 242 241 238 238 239 239 240 241 242 240 242 245 245 242 243 245 246 245 246 246 245 243 240 238 238 239
296 295 297 294 291 292 296 295 290 283 279 278 280 283 284 283 282 280 278 277 276 276 274 270 265 261 262 265 267 267 266 263 256 246 238 234 232 231 231 230 229 229 229 230 230 230 232 233 234 235 237 239 240 240 240 238 239 240 240 241 240 239 238 239 241 241 242 243 241 240 244 247 247 244 243 245 245 246 248 247 245 244 242 241 240
Height
5849 5849 5849 5850 5850 5851 5851 5852 5852 5852 5853 5853 5853 5853 5853 5854 5854 5855 5856 5857 5857 5857 5857 5857 5858 5858 5858 5859 5859 5859 5860 5860 5861 5861 5861 5861 5861 5862 5863 5864 5865 5866 5867 5868 5868 5869 5869 5869 5869 5869 5869 5869 5869 5869 5869 5869 5869 5868 5868 5867 5867 5866 5866 5866 5865 5865 5864 5863 5863 5863 5863 5863 5862 5862 5862 5861 5861 5861 5861 5860 5860 5860 5859 5859 5858
5847 5848 5848 5848 5849 5849 5849 5850 5850 5850 5850 5850 5851 5851 5851 5851 5852 5853 5854 5854 5855 5855 5855 5855 5856 5856 5856 5857 5857 5858 5858 5859 5859 5860 5860 5860 5860 5860 5861 5863 5864 5865 5866 5867 5867 5868 5868 5869 5868 5868 5868 5868 5868 5868 5868 5868 5868 5868 5868 5867 5866 5866 5865 5865 5865 5864 5864 5863 5863 5863 5863 5862 5862 5862 5861 5861 5861 5861 5860 5860 5859 5859 5859 5859 5858
5847 5847 5847 5847 5848 5848 5848 5848 5848 5848 5848 5848 5848 5848 5848 5848 5849 5850 5851 5852 5852 5853 5853 5853 5854 5854 5854 5855 5856 5856 5856 5857 5858 5859 5859 5859 5859 5859 5860 5861 5862 5864 5865 5866 5867 5867 5868 5868 5868 5868 5868 5868 5868 5868 5867 5867 5868 5868 5867 5867 5866 5866 5865 5865 5864 5864 5863 5863 5863 5863 5863 5862 5862 5861 5861 5861 5861 5860 5860 5859 5859 5859 5859 5858 5858
5846 5846 5846 5847 5847 5847 5847 5846 5846 5846 5846 5846 5845 5845 5845 5845 5846 5847 5848 5849 5850 5851 5851 5851 5852 5852 5853 5853 5854 5854 5855 5855 5856 5857 5858 5858 5858 5858 5859 5860 5861 5862 5864 5865 5866 5866 5867 5867 5867 5867 5867 5867 5867 5867 5867 5867 5867 5867 5867 5867 5866 5866 5865 5865 5864 5863 5863 5863 5862 5862 5862 5862 5861 5861 5861 5860 5860 5860 5859 5859 5859 5859 5858 5858 5857
5844 5845 5845 5845 5845 5845 5845 5845 5845 5844 5844 5844 5843 5843 5842 5842 5843 5844 5845 5846 5847 5848 5848 5849 5849 5850 5851 5851 5852 5852 5853 5853 5854 5855 5856 5856 5857 5857 5857 5858 5860 5861 5863 5864 5865 5865 5866 5866 5866 5866 5867 5867 5867 5867 5867 5867 5867 5867 5867 5867 5866 5866 5865 5864 5863 5863 5862 5862 5862 5862 5862 5862 5861 5861 5860 5860 5860 5860 5859 5859 5858 5858 5858 5858 5857
5842 5842 5842 5842 5843 5843 5843 5843 5843 5843 5842 5842 5841 5841 5840 5840 5840 5841 5842 5843 5844 5845 5846 5846 5847 5848 5849 5849 5850 5851 5851 5852 5853 5854 5855 5855 5856 5855 5856 5857 5858 5860 5861 5863 5863 5864 5865 5865 5866 5866 5866 5866 5866 5867 5867 5867 5866 5866 5867 5867 5866 5866 5865 5864 5863 5862 5862 5862 5862 5862 5862 5861 5861 5860 5860 5860 5860 5859 5859 5858 5858 5858 5858 5857 5857
5839 5839 5839 5839 5840 5840 5840 5840 5840 5841 5841 5840 5840 5839 5838 5838 5837 5838 5838 5840 5841 5842 5843 5843 5844 5846 5847 5847 5848 5849 5850 5850 5851 5852 5853 5854 5855 5855 5855 5855 5857 5858 5860 5861 5862 5863 5863 5864 5865 5865 5865 5865 5866 5866 5866 5867 5866 5866 5866 5866 5866 5865 5865 5864 5863 5862 5862 5862 5862 5862 5861 5861 5861 5860 5860 5860 5860 5859 5859 5858 5858 5858 5857 5857 5856
5837 5838 5838 5837 5838 5838 5839 5838 5838 5839 5839 5838 5838 5838 5836 5835 5835 5835 5835 5837 5838 5839 5840 5840 5842 5843 5844 5845 5846 5847 5848 5849 5850 5851 5852 5853 5854 5854 5854 5854 5855 5857 5858 5859 5860 5861 5862 5863 5863 5864 5864 5864 5865 5865 5866 5866 5866 5866 5866 5866 5865 5865 5864 5864 5863 5862 5862 5861 5861 5861 5861 5861 5860 5860 5860 5860 5859 5859 5859 5858 5858 5858 5857 5857 5856
5836 5836 5836 5836 5836 5837 5837 5837 5837 5837 5837 5837 5837 5837 5835 5832 5831 5832 5832 5834 5835 5837 5838 5838 5839 5841 5842 5843 5845 5846 5847 5847 5848 5850 5851 5852 5853 5854 5854 5854 5854 5856 5857 5857 5859 5860 5861 5862 5862 5863 5863 5863 5864 5865 5865 5865 5865 5865 5865 5865 5865 5864 5864 5864 5863 5862 5862 5861 5861 5861 5861 5860 5860 5860 5860 5860 5859 5859 5859 5858 5858 5857 5857 5856 5856
5835 5835 5834 5834 5834 5835 5835 5836 5835 5835 5835 5835 5835 5836 5835 5832 5830 5828 5829 5831 5833 5835 5836 5837 5838 5839 5840 5841 5843 5844 5845 5846 5847 5848 5849 5850 5851 5852 5852 5853 5853 5854 5855 5856 5857 5858 5859 5860 5861 5862 5862 5862 5863 5864 5864 5864 5864 5864 5865 5864 5864 5864 5864 5863 5862 5861 5861 5861 5860 5860 5860 5860 5860 5860 5860 5860 5859 5859 5859 5858 5858 5857 5857 5856 5856
5833 5833 5833 5832 5833 5833 5833 5833 5833 5833 5833 5833 5833 5834 5834 5833 5831 5829 5827 5828 5829 5832 5834 5835 5837 5838 5838 5840 5841 5842 5843 5844 5845 5846 5847 5848 5849 5850 5851 5852 5852 5853 5854 5854 5855 5857 5858 5859 5860 5860 5861 5861 5862 5863 5863 5863 5864 5864 5864 5863 5863 5863 5864 5863 5862 5861 5860 5860 5860 5860 5860 5860 5860 5860 5860 5859 5859 5859 5858 5858 5858 5857 5857 5856 5855
5832 5832 5832 5831 5831 5831 5831 5831 5830 5831 5832 5832 5832 5831 5831 5831 5831 5830 5827 5826 5826 5829 5831 5833 5835 5836 5837 5838 5839 5840 5841 5842 5843 5844 5845 5846 5847 5848 5849 5850 5851 5852 5852 5853 5854 5855 5856 5857 5858 5859 5860 5860 5861 5862 5862 5862 5863 5863 5862 5862 5862 5863 5863 5862 5861 5860 5860 5859 5859 5859 5859 5859 5859 5859 5860 5859 5859 5859 5858 5858 5858 5857 5857 5856 5855
5831 5831 5830 5830 5830 5829 5828 5829 5828 5829 5830 5829 5829 5828 5828 5827 5827 5828 5827 5827 5826 5827 5829 5831 5832 5834 5835 5836 5837 5838 5839 5840 5841 5842 5843 5844 5845 5847 5848 5849 5850 5850 5851 5851 5852 5853 5854 5855 5856 5857 5858 5859 5860 5861 5861 5861 5862 5862 5861 5861 5862 5863 5862 5861 5861 5860 5859 5859 5858 5858 5858 5858 5858 5859 5859 5859 5859 5858 5858 5858 5857 5857 5856 5856 5855
5828 5829 5828 5828 5828 5826 5825 5826 5825 5826 5826 5826 5826 5825 5825 5825 5825 5825 5825 5826 5827 5828 5829 5829 5830 5831 5833 5834 5835 5836 5837 5838 5839 5840 5841 5842 5843 5845 5846 5847 5848 5848 5849 5850 5851 5852 5853 5854 5855 5856 5856 5857 5858 5859 5860 5860 5860 5861 5860 5860 5861 5862 5861 5861 5860 5860 5859 5858 5858 5858 5857 5857 5858 5858 5858 5858 5858 5858 5857 5857 5857 5857 5856 5856 5855
5826 5826 5826 5826 5826 5824 5823 5823 5822 5821 5822 5822 5822 5822 5822 5823 5823 5823 5823 5823 5824 5825 5826 5828 5829 5829 5830 5832 5833 5834 5835 5836 5837 5838 5839 5840 5841 5842 5843 5845 5846 5847 5848 5849 5850 5851 5852 5852 5853 5854 5855 5855 5856 5858 5858 5859 5859 5859 5860 5860 5861 5861 5860 5860 5860 5859 5859 5858 5857 5857 5856 5857 5857 5857 5857 5858 5858 5857 5857 5857 5856 5856 5856 5856 5855
5823 5823 5823 5823 5823 5821 5820 5820 5819 5818 5819 5819 5818 5818 5819 5820 5820 5821 5821 5821 5821 5821 5822 5824 5826 5827 5828 5829 5830 5831 5833 5834 5835 5836 5837 5838 5839 5840 5841 5842 5844 5845 5846 5847 5848 5849 5850 5851 5851 5852 5853 5854 5855 5856 5857 5858 5858 5858 5859 5859 5860 5860 5859 5859 5859 5859 5858 5857 5856 5856 5856 5857 5856 5856 5856 5857 5857 5857 5856 5856 5856 5856 5856 5855 5855
5819 5819 5820 5820 5819 5818 5817 5817 5816 5816 5816 5815 5815 5815 5815 5815 5816 5817 5818 5819 5820 5819 5820 5821 5824 5825 5826 5827 5828 5829 5830 5831 5832 5833 5834 5836 5837 5838 5839 5840 5841 5843 5844 5845 5846 5847 5848 5849 5849 5850 5851 5852 5853 5854 5855 5856 5857 5857 5857 5858 5859 5859 5858 5859 5858 5858 5857 5856 5856 5856 5856 5856 5856 5856 5856 5856 5856 5856 5856 5856 5856 5855 5855 5855 5855
5816 5816 5816 5816 5815 5814 5814 5814 5813 5813 5813 5812 5812 5812 5811 5811 5811 5812 5815 5816 5817 5817 5818 5820 5821 5823 5824 5824 5825 5826 5827 5828 5830 5831 5832 5833 5834 5835 5836 5838 5839 5840 5841 5843 5844 5845 5846 5846 5847 5848 5849 5850 5851 5852 5853 5855 5855 5856 5856 5857 5858 5858 5857 5857 5857 5857 5857 5856 5856 5855 5856 5856 5855 5855 5855 5855 5855 5855 5855 5855 5855 5855 5855 5855 5854
5813 5812 5812 5812 5812 5811 5811 5810 5810 5810 5810 5809 5809 5809 5808 5808 5808 5809 5812 5813 5814 5815 5816 5817 5819 5820 5821 5822 5822 5823 5824 5826 5827 5829 5830 5831 5832 5833 5833 5835 5836 5837 5839 5840 5842 5843 5844 5844 5845 5846 5847 5848 5849 5850 5851 5853 5854 5854 5855 5855 5856 5856 5856 5856 5857 5856 5856 5856 5855 5855 5855 5855 5855 5855 5855 5855 5855 5855 5854 5854 5854 5854 5854 5854 5854
5810 5810 5809 5809 5809 5808 5807 5807 5807 5807 5807 5806 5805 5806 5805 5805 5806 5807 5808 5810 5812 5812 5813 5814 5815 5817 5818 5819 5820 5821 5821 5823 5824 5826 5827 5828 5829 5830 5831 5832 5833 5835 5836 5837 5839 5841 5842 5843 5844 5844 5845 5846 5847 5848 5849 5850 5852 5852 5853 5854 5854 5855 5855 5854 5856 5856 5855 5855 5854 5854 5854 5854 5854 5854 5854 5854 5854 5854 5854 5853 5853 5853 5853 5853 5853
5808 5807 5806 5806 5806 5806 5805 5804 5804 5804 5804 5803 5802 5802 5802 5802 5802 5804 5805 5807 5808 5809 5810 5811 5812 5814 5815 5817 5817 5818 5819 5820 5821 5822 5824 5825 5826 5827 5828 5829 5830 5832 5833 5835 5836 5838 5839 5841 5842 5843 5843 5844 5845 5846 5847 5849 5850 5850 5851 5852 5853 5854 5853 5852 5854 5855 5854 5853 5853 5852 5852 5852 5853 5853 5853 5853 5853 5853 5853 5853 5852 5852 5853 5853 5853
5805 5804 5804 5804 5804 5803 5802 5802 5801 5801 5800 5800 5799 5799 5799 5799 5799 5800 5802 5803 5804 5805 5806 5808 5809 5811 5813 5814 5815 5816 5816 5817 5818 5819 5821 5823 5824 5825 5826 5827 5828 5829 5831 5832 5833 5835 5837 5838 5840 5841 5842 5842 5843 5844 5845 5847 5848 5849 5849 5851 5851 5852 5852 5851 5852 5854 5852 5852 5852 5851 5851 5851 5852 5852 5852 5852 5852 5852 5852 5852 5852 5852 5852 5852 5852
5803 5802 5802 5801 5801 5800 5800 5800 5799 5798 5798 5797 5797 5796 5796 5796 5797 5798 5799 5800 5800 5801 5803 5805 5807 5808 5810 5812 5813 5813 5814 5815 5816 5817 5819 5821 5822 5823 5824 5826 5827 5827 5828 5829 5830 5832 5834 5836 5837 5838 5839 5840 5841 5842 5843 5845 5846 5847 5848 5849 5850 5851 5851 5849 5850 5852 5851 5851 5851 5850 5850 5850 5850 5851 5851 5851 5851 5851 5851 5851 5851 5851 5851 5851 5851
5801 5800 5800 5799 5799 5798 5797 5797 5796 5795 5795 5794 5794 5793 5793 5793 5794 5795 5796 5797 5797 5797 5800 5802 5804 5805 5807 5808 5809 5810 5811 5812 5813 5814 5816 5818 5819 5820 5822 5823 5825 5826 5826 5827 5828 5829 5831 5833 5834 5835 5836 5838 5839 5840 5841 5842 5844 5845 5846 5847 5848 5849 5849 5848 5848 5850 5850 5849 5849 5849 5849 5849 5849 5849 5850 5850 5850 5850 5850 5850 5850 5850 5850 5850 5850
5799 5798 5797 5797 5796 5796 5795 5794 5793 5792 5792 5791 5791 5790 5790 5790 5791 5792 5792 5793 5793 5794 5796 5798 5801 5803 5804 5804 5805 5806 5808 5809 5810 5811 5812 5814 5816 5818 5819 5820 5821 5823 5824 5826 5827 5828 5829 5831 5832 5832 5834 5836 5837 5838 5839 5840 5841 5843 5844 5845 5846 5847 5847 5846 5847 5849 5849 5848 5848 5848 5848 5848 5848 5848 5848 5848 5849 5849 5849 5849 5849 5849 5849 5849 5849
5797 5796 5795 5794 5793 5793 5791 5790 5790 5789 5788 5788 5787 5787 5786 5787 5788 5788 5789 5790 5790 5791 5793 5795 5798 5800 5801 5802 5803 5804 5805 5806 5807 5808 5809 5811 5813 5815 5817 5818 5819 5820 5822 5824 5825 5827 5828 5829 5830 5831 5832 5834 5835 5836 5837 5838 5839 5840 5842 5844 5845 5845 5846 5845 5845 5847 5848 5847 5847 5847 5846 5847 5847 5847 5847 5847 5847 5847 5848 5848 5848 5848 5848 5848 5848
5795 5794 5793 5792 5791 5790 5789 5788 5787 5786 5785 5784 5784 5783 5783 5784 5784 5785 5786 5787 5787 5789 5790 5792 5794 5796 5798 5799 5800 5801 5802 5803 5804 5805 5806 5808 5809 5811 5813 5815 5817 5818 5820 5821 5822 5824 5826 5827 5828 5829 5830 5832 5834 5835 5836 5836 5837 5839 5841 5842 5843 5844 5844 5843 5843 5845 5846 5846 5845 5845 5845 5845 5846 5846 5846 5846 5846 5846 5846 5846 5846 5846 5847 5847 5847
5793 5792 5791 5790 5789 5788 5786 5785 5784 5783 5782 5781 5781 5780 5780 5781 5781 5782 5783 5784 5785 5786 5787 5789 5791 5793 5795 5796 5797 5798 5800 5801 5801 5802 5804 5805 5806 5808 5810 5812 5813 5815 5817 5818 5819 5821 5823 5825 5826 5827 5829 5830 5832 5833 5834 5834 5835 5837 5839 5840 5841 5842 5842 5842 5841 5843 5844 5844 5844 5844 5844 5844 5844 5845 5845 5845 5845 5845 5845 5845 5845 5845 5845 5846 5846
5790 5789 5788 5787 5786 5785 5784 5782 5780 5779 5778 5777 5777 5777 5777 5777 5778 5779 5780 5781 5783 5784 5785 5786 5788 5790 5792 5794 5795 5795 5797 5798 5799 5799 5800 5801 5803 5804 5806 5808 5810 5812 5814 5815 5817 5819 5820 5821 5823 5825 5827 5829 5831 5832 5832 5833 5834 5836 5837 5838 5839 5840 5840 5840 5839 5840 5842 5843 5843 5843 5843 5843 5843 5844 5844 5844 5844 5844 5844 5844 5844 5844 5844 5844 5845
5787 5786 5785 5784 5783 5782 5781 5779 5777 5775 5773 5773 5772 5772 5772 5773 5774 5775 5776 5778 5780 5781 5783 5784 5785 5787 5789 5791 5792 5793 5794 5795 5795 5796 5797 5798 5799 5801 5802 5804 5806 5809 5811 5813 5815 5816 5817 5818 5819 5821 5824 5826 5828 5829 5830 5831 5833 5834 5835 5836 5837 5838 5838 5838 5838 5838 5840 5841 5842 5842 5842 5842 5843 5843 5843 5843 5843 5843 5843 5843 5843 5843 5843 5843 5844
5784 5783 5782 5782 5780 5779 5777 5775 5773 5771 5769 5768 5768 5767 5768 5769 5770 5772 5773 5775 5777 5779 5780 5781 5783 5784 5786 5788 5789 5790 5791 5791 5792 5792 5793 5794 5796 5797 5799 5800 5802 5805 5808 5810 5812 5813 5814 5816 5817 5818 5821 5823 5825 5826 5828 5830 5831 5832 5833 5834 5835 5836 5837 5837 5836 5836 5838 5839 5840 5840 5840 5841 5841 5841 5842 5842 5842 5842 5842 5842 5842 5842 5842 5842 5842
5781 5780 5780 5779 5778 5776 5774 5772 5770 5767 5765 5764 5764 5764 5765 5766 5767 5768 5770 5772 5774 5776 5777 5779 5780 5782 5784 5785 5786 5787 5787 5788 5788 5788 5789 5791 5792 5794 5796 5797 5798 5801 5804 5806 5808 5810 5811 5813 5815 5816 5819 5821 5822 5823 5825 5827 5828 5829 5831 5832 5833 5834 5835 5835 5835 5835 5836 5837 5838 5839 5839 5839 5840 5840 5840 5841 5841 5841 5841 5841 5841 5841 5841 5841 5841
5779 5778 5777 5776 5775 5773 5772 5769 5767 5764 5762 5761 5761 5761 5762 5763 5764 5766 5767 5770 5771 5771 5773 5775 5777 5779 5781 5782 5782 5783 5784 5784 5784 5785 5786 5787 5789 5791 5792 5794 5796 5798 5801 5803 5805 5807 5809 5810 5812 5814 5816 5818 5820 5821 5822 5824 5825 5826 5827 5829 5830 5831 5833 5833 5833 5833 5834 5835 5836 5837 5837 5837 5838 5838 5839 5839 5839 5840 5840 5840 5840 5840 5840 5840 5840
5776 5776 5775 5773 5772 5771 5768 5766 5764 5761 5759 5758 5758 5759 5760 5760 5761 5763 5765 5766 5766 5766 5769 5771 5773 5775 5776 5778 5779 5781 5781 5781 5782 5782 5784 5785 5786 5787 5789 5791 5793 5796 5798 5800 5802 5804 5806 5807 5809 5812 5814 5816 5817 5819 5821 5822 5823 5824 5825 5826 5827 5829 5830 5831 5832 5832 5832 5833 5834 5835 5835 5836 5836 5836 5837 5837 5838 5838 5839 5839 5839 5839 5839 5839 5839
5775 5774 5772 5771 5769 5768 5765 5763 5761 5759 5757 5756 5756 5756 5757 5758 5758 5759 5761 5762 5762 5763 5765 5767 5768 5770 5772 5773 5775 5777 5778 5779 5779 5779 5781 5782 5783 5785 5786 5789 5791 5793 5795 5797 5799 5801 5803 5804 5806 5808 5810 5813 5814 5816 5818 5819 5821 5822 5823 5824 5825 5826 5827 5828 5829 5829 5830 5831 5833 5833 5834 5834 5834 5834 5835 5835 5836 5836 5837 5837 5838 5838 5838 5838 5838
5774 5772 5771 5769 5767 5766 5764 5761 5759 5758 5757 5755 5755 5755 5756 5756 5756 5757 5758 5759 5759 5761 5762 5763 5764 5766 5768 5769 5771 5773 5775 5776 5776 5777 5778 5778 5780 5781 5784 5786 5788 5791 5793 5794 5796 5798 5800 5802 5803 5805 5807 5809 5811 5813 5814 5816 5817 5818 5820 5821 5823 5824 5825 5826 5827 5827 5828 5829 5830 5831 5832 5832 5833 5833 5833 5833 5834 5834 5835 5835 5836 5836 5836 5836 5836
5773 5771 5770 5768 5767 5765 5763 5760 5758 5757 5756 5755 5754 5754 5755 5756 5756 5756 5756 5757 5757 5758 5759 5760 5761 5762 5764 5765 5767 5769 5771 5773 5774 5774 5775 5776 5777 5778 5780 5783 5785 5787 5789 5791 5793 5795 5796 5798 5800 5802 5804 5806 5808 5809 5810 5812 5813 5814 5816 5818 5819 5821 5822 5823 5824 5825 5826 5827 5827 5828 5829 5830 5830 5830 5831 5831 5832 5832 5833 5833 5834 5834 5834 5834 5834
5772 5770 5769 5768 5767 5765 5763 5761 5759 5758 5757 5755 5754 5754 5755 5755 5755 5756 5756 5756 5756 5756 5756 5757 5758 5759 5760 5761 5763 5765 5767 5769 5771 5771 5773 5774 5775 5775 5777 5779 5781 5783 5786 5788 5789 5791 5793 5795 5797 5799 5801 5803 5805 5806 5807 5809 5810 5811 5813 5814 5816 5817 5818 5819 5820 5822 5823 5824 5825 5825 5826 5827 5827 5827 5827 5828 5829 5830 5830 5831 5832 5832 5833 5833 5833
5771 5770 5769 5768 5766 5765 5763 5761 5759 5758 5757 5755 5754 5753 5754 5754 5755 5755 5755 5755 5755 5755 5755 5755 5755 5756 5757 5758 5760 5761 5763 5765 5766 5768 5769 5771 5772 5773 5774 5775 5777 5779 5782 5784 5786 5788 5790 5792 5794 5796 5798 5800 5802 5803 5804 5806 5807 5808 5810 5811 5812 5814 5815 5816 5817 5818 5820 5822 5822 5823 5823 5824 5824 5824 5824 5824 5825 5826 5827 5828 5829 5830 5830 5831 5831
5770 5768 5767 5767 5765 5764 5762 5760 5758 5757 5756 5755 5754 5753 5753 5753 5753 5754 5754 5754 5754 5754 5754 5754 5754 5754 5754 5756 5757 5758 5759 5761 5762 5764 5766 5767 5768 5769 5770 5772 5774 5776 5778 5780 5782 5784 5786 5788 5791 5792 5795 5797 5798 5799 5800 5802 5803 5805 5807 5808 5809 5810 5811 5813 5814 5815 5817 5818 5819 5820 5820 5821 5821 5822 5821 5821 5822 5823 5824 5825 5826 5827 5827 5828 5829
5768 5767 5765 5765 5764 5763 5762 5759 5757 5756 5755 5754 5753 5752 5752 5752 5752 5752 5753 5753 5754 5754 5753 5753 5753 5753 5753 5753 5754 5755 5756 5757 5759 5761 5764 5765 5765 5766 5767 5768 5771 5772 5774 5776 5778 5781 5782 5784 5786 5788 5791 5793 5794 5795 5796 5798 5800 5801 5803 5804 5805 5807 5809 5810 5811 5812 5813 5814 5815 5816 5817 5818 5818 5818 5818 5819 5819 5820 5820 5821 5822 5823 5824 5825 5826
5767 5765 5764 5763 5763 5762 5761 5759 5756 5755 5754 5754 5753 5752 5751 5751 5751 5751 5752 5752 5752 5753 5753 5753 5752 5752 5751 5751 5752 5752 5753 5754 5756 5758 5762 5763 5762 5762 5763 5765 5767 5769 5771 5772 5774 5776 5778 5779 5781 5784 5787 5789 5790 5791 5793 5795 5796 5798 5799 5800 5802 5804 5805 5806 5807 5808 5809 5809 5811 5812 5814 5814 5815 5815 5815 5816 5816 5817 5817 5818 5818 5819 5821 5822 5823
5765 5764 5762 5761 5761 5761 5760 5758 5756 5755 5754 5753 5752 5752 5751 5751 5750 5750 5750 5751 5751 5751 5751 5751 5751 5751 5750 5750 5750 5750 5751 5752 5753 5754 5757 5759 5759 5759 5760 5762 5763 5765 5767 5768 5770 5772 5773 5775 5776 5779 5782 5784 5786 5788 5789 5791 5792 5794 5795 5797 5799 5800 5800 5801 5803 5803 5804 5805 5807 5809 5810 5811 5812 5812 5812 5813 5813 5814 5814 5814 5814 5815 5817 5818 5820
5764 5763 5761 5760 5760 5759 5759 5758 5756 5754 5753 5752 5752 5751 5751 5750 5750 5749 5749 5749 5749 5750 5750 5750 5750 5749 5749 5749 5749 5749 5749 5750 5750 5751 5752 5753 5754 5755 5756 5758 5759 5761 5763 5764 5765 5767 5769 5770 5772 5774 5777 5780 5782 5783 5785 5786 5788 5790 5791 5792 5794 5795 5796 5797 5798 5798 5799 5801 5803 5804 5805 5807 5808 5809 5809 5810 5810 5810 5810 5810 5811 5811 5813 5814 5816
5763 5762 5760 5759 5759 5758 5758 5757 5755 5754 5753 5752 5751 5751 5750 5749 5749 5748 5748 5748 5748 5748 5748 5748 5748 5748 5747 5747 5747 5747 5747 5748 5748 5749 5749 5750 5750 5751 5752 5754 5756 5757 5759 5760 5761 5762 5764 5766 5768 5770 5772 5774 5777 5779 5780 5782 5784 5785 5786 5788 5790 5791 5792 5793 5793 5793 5795 5797 5799 5800 5801 5803 5804 5805 5806 5807 5807 5807 5807 5807 5807 5807 5808 5810 5811
5761 5760 5759 5758 5757 5757 5756 5755 5754 5753 5753 5752 5751 5750 5749 5748 5748 5747 5747 5747 5747 5747 5747 5747 5747 5746 5746 5745 5745 5745 5745 5746 5746 5746 5747 5747 5748 5748 5749 5751 5752 5754 5755 5756 5757 5759 5760 5762 5764 5766 5768 5770 5772 5774 5776 5777 5779 5781 5782 5783 5785 5786 5788 5789 5788 5789 5791 5793 5794 5796 5797 5798 5800 5801 5802 5803 5804 5804 5804 5804 5804 5804 5804 5806 5808
5760 5759 5758 5757 5756 5755 5754 5753 5753 5752 5751 5751 5750 5749 5748 5747 5747 5746 5746 5746 5746 5746 5746 5746 5746 5745 5745 5744 5743 5743 5743 5743 5744 5744 5745 5745 5745 5746 5746 5747 5749 5750 5751 5753 5754 5755 5757 5758 5760 5762 5764 5766 5767 5770 5771 5772 5774 5776 5777 5778 5780 5781 5783 5784 5784 5785 5787 5789 5790 5791 5793 5794 5795 5796 5797 5798 5799 5800 5800 5801 5801 5801 5801 5802 5804
5758 5757 5756 5756 5755 5754 5753 5752 5751 5750 5750 5749 5749 5748 5747 5747 5746 5745 5745 5744 5744 5744 5744 5744 5744 5744 5744 5743 5743 5742 5741 5741 5742 5742 5742 5743 5743 5743 5744 5744 5745 5746 5748 5749 5750 5752 5753 5754 5756 5758 5760 5761 5763 5765 5767 5767 5769 5771 5773 5774 5776 5777 5778 5779 5780 5781 5783 5785 5786 5787 5788 5789 5789 5791 5793 5794 5794 5795 5796 5797 5797 5798 5799 5800 5800
5756 5755 5755 5754 5753 5752 5751 5750 5749 5748 5748 5748 5747 5747 5746 5745 5745 5744 5744 5743 5743 5742 5742 5742 5742 5742 5742 5742 5742 5741 5740 5740 5740 5740 5740 5741 5741 5741 5741 5742 5742 5743 5744 5746 5747 5748 5749 5750 5752 5754 5756 5757 5758 5760 5762 5763 5764 5766 5768 5769 5771 5772 5773 5774 5776 5777 5778 5781 5782 5782 5783 5784 5785 5787 5788 5788 5790 5791 5792 5793 5794 5795 5797 5797 5798
5753 5753 5753 5752 5751 5750 5749 5748 5747 5746 5746 5746 5745 5745 5744 5744 5743 5743 5742 5742 5741 5741 5740 5740 5740 5740 5740 5740 5740 5740 5740 5739 5738 5738 5738 5739 5739 5739 5739 5739 5740 5740 5741 5742 5743 5745 5746 5747 5748 5750 5751 5753 5754 5756 5757 5759 5760 5761 5763 5765 5767 5768 5768 5770 5771 5772 5774 5776 5777 5778 5778 5778 5780 5782 5783 5784 5785 5786 5787 5789 5790 5791 5793 5794 5795
5751 5751 5750 5750 5750 5749 5747 5746 5745 5744 5744 5744 5743 5743 5742 5742 5741 5741 5740 5740 5739 5739 5739 5738 5738 5738 5738 5738 5738 5739 5738 5738 5738 5737 5737 5737 5737 5737 5737 5737 5738 5738 5739 5740 5740 5742 5743 5744 5745 5746 5747 5749 5750 5751 5753 5755 5756 5757 5759 5760 5762 5763 5764 5765 5766 5768 5769 5770 5773 5774 5774 5773 5774 5778 5779 5779 5780 5782 5783 5785 5786 5787 5788 5790 5792